Find SpaceMobile-009

NORAD ID: 69590 Int'l Des: 2026-139 Owner: ASTS Country: US Constellation: bluewalker operational
LEOCIRCULAR

当前视图

正在加载3D地球...

About SpaceMobile-009

SpaceMobile-009 (NORAD 69590) is a bluewalker constellation satellite launched Jun 17, 2026 by ASTS of US. It operates in LEO, CIRCULAR orbit with a mass of 5850.00 kg.

关于 SpaceMobile-009

正在加载描述...

即将过境

Passes for default location (London). Set your location on the main map for personalized predictions.

高度历史

Loading altitude history...

两行轨道根数

1 69590U 26139B 26168.93360785 .00000615 00000-0 51729-4 0 9994
2 69590 52.9957 259.1737 0003705 335.3231 24.7582 15.12664370 99
Epoch: Jun 17, 2026 • Age: 20 hours

当前状态

高度 536.0 km
速度 7.59 km/s
星下点 -22.19°S, 89.06°W
发射日期 Jun 17, 2026
运行时间 1 day
类型 other

技术详情

分类 Payload
质量 5850.00 kg
干质量 5830.00 kg
总质量 5850.00 kg
长度 1.60 m
直径 4.30 m
跨度 15.00 m
形状 Cyl + 2 pan + plate
制造商 ASTS
平台类型 BB Block-2
阶段状态 In Orbit
所有者/国家 ASTS/US

Most Searched